Tracking 19709 objects as of 20-Jun-2019
HD Live streaming from Space Station
objects crossing your sky now

FLOCK 3R 2

Track FLOCK 3R 2 now!
10-day predictions
FLOCK 3R 2 is classified as:


NORAD ID: 43748
Int'l Code: 2018-096AF
Perigee: 476.6 km
Apogee: 504.8 km
Inclination: 97.5 °
Period: 94.3 minutes
Semi major axis: 6861 km
RCS: Unknown
Launch date: November 29, 2018
Source: United States (US)
Launch site: SRIHARIKOTA (SRI)
aabbcc
Your satellite tracking list
Your tracking list is empty




NASA's NSSDC Master Catalog

Two Line Element Set (TLE):
1 43748U 18096AF  19169.86497559 +.00001834 +00000-0 +70797-4 0  9999
2 43748 097.4609 240.0610 0020518 341.5029 018.5462 15.27417722030788
Source of the keplerian elements: AFSPC